Theta_e
314 317 317 315 318 318 314 326 329 333 332 329 332 333 333 332 327 325 326 331 330 332 332 332 332 330 324 323 326 328 328 325 326
310 310 313 316 315 313 311 314 312 323 330 333 329 330 334 334 332 329 325 329 331 332 332 334 331 331 325 324 322 321 322 322 323
303 300 305 309 312 315 317 316 317 311 314 324 332 331 331 334 334 333 330 327 326 331 331 332 332 332 328 324 323 322 321 321 319
300 298 297 301 304 310 315 318 317 318 315 318 315 321 332 331 332 334 333 331 329 327 331 331 332 333 333 326 324 322 322 321 320
297 296 296 298 300 303 305 312 317 319 317 313 311 308 316 328 331 332 333 333 330 329 326 332 334 334 333 328 326 325 323 322 320
296 297 297 299 302 302 303 304 309 316 317 315 310 308 306 308 317 330 330 330 332 332 329 331 333 335 334 333 332 327 330 332 323
297 297 297 297 297 296 296 301 304 306 313 313 311 306 306 306 307 309 321 325 329 331 332 331 331 333 334 333 336 335 333 330 330
297 297 297 297 297 296 295 296 303 305 305 307 307 306 305 306 306 307 307 316 323 327 329 334 333 332 334 334 333 332 333 333 328
297 297 297 298 298 297 296 296 297 304 305 305 305 305 306 305 305 306 306 307 316 322 325 328 331 334 333 335 334 332 331 332 332
297 297 297 297 297 297 297 296 296 300 303 304 306 305 305 305 305 305 305 305 307 311 317 322 327 330 334 334 335 335 335 331 331
297 297 298 298 297 298 297 296 297 297 301 304 305 305 306 305 305 305 304 304 305 306 308 313 317 324 331 333 333 333 333 333 331
297 297 298 298 297 298 297 297 297 297 298 301 304 305 305 305 305 305 304 304 303 304 305 305 307 311 317 321 329 331 333 336 330
296 297 297 298 298 297 297 297 297 297 297 299 301 302 303 303 303 303 304 304 303 303 303 304 304 305 307 310 309 312 324 329 328
296 296 296 297 297 297 298 298 298 297 297 297 299 301 302 303 301 302 302 303 303 301 302 302 303 303 303 304 304 306 307 312 325
296 296 296 296 296 297 297 297 297 297 297 297 298 299 300 301 301 302 302 302 300 300 300 301 302 302 302 302 302 305 315 309 317
296 297 296 297 296 296 296 296 297 297 297 297 297 297 299 301 301 302 302 300 299 298 298 298 299 301 302 301 301 305 308 315 308
297 297 297 297 297 296 296 296 296 297 297 297 297 297 297 300 302 301 300 299 299 298 301 300 299 299 300 301 301 302 305 307 313
297 297 297 297 297 297 296 295 296 296 297 297 297 297 297 299 300 300 300 300 299 300 300 299 301 299 300 302 302 302 302 305 307
297 297 297 298 297 297 297 296 296 296 296 297 297 297 299 300 300 300 299 299 298 299 299 298 300 301 302 301 301 302 302 303 303
297 297 297 298 297 297 297 296 296 295 296 297 297 297 296 299 299 299 299 299 299 299 299 299 299 298 301 301 301 301 301 301 301
Wind_Speed
18 20 16 13 14 14 12 15 15 16 18 22 17 17 18 16 17 17 17 18 15 14 14 14 12 10 12 15 20 18 17 15 13
19 22 19 19 18 17 14 13 13 14 17 20 24 21 18 20 20 19 20 21 19 17 17 17 15 12 11 14 16 17 18 17 16
22 24 23 20 18 16 13 15 15 15 15 17 20 26 22 21 22 23 23 20 22 22 20 20 19 15 13 14 16 15 16 16 17
22 23 23 24 24 19 15 13 14 15 16 13 15 16 24 26 23 22 24 25 24 24 23 21 24 20 16 15 16 16 16 17 17
27 25 24 20 23 26 26 17 9 13 16 19 20 18 18 21 30 24 21 25 29 26 25 24 25 25 21 19 18 17 18 18 18
30 29 26 22 20 20 26 26 22 14 13 21 21 19 17 17 19 29 24 24 23 28 28 29 26 26 26 23 22 20 20 20 20
32 29 27 25 25 25 23 24 26 26 22 22 21 21 20 18 18 17 24 23 27 24 30 29 29 29 30 28 25 24 23 23 23
26 28 27 27 27 26 25 24 25 25 26 28 27 22 23 24 21 19 18 19 21 25 27 21 33 33 30 31 29 27 27 27 26
28 29 27 27 25 24 24 24 25 28 27 26 28 29 23 24 24 23 20 19 18 20 23 29 29 31 30 30 32 32 30 29 29
27 26 25 24 22 23 24 24 24 26 24 26 25 22 27 24 22 24 23 21 20 18 20 24 29 29 29 34 25 30 39 35 30
28 29 28 25 23 22 22 24 24 25 23 23 24 20 24 26 24 20 19 21 22 21 21 22 22 24 28 36 43 22 22 43 36
30 30 29 28 25 24 24 24 23 25 24 25 21 19 21 23 24 25 19 18 19 22 22 22 22 24 26 30 35 47 30 38 36
26 30 31 30 30 27 26 24 25 26 25 27 25 26 24 25 26 25 26 22 20 20 22 24 24 25 26 26 26 28 38 36 14
24 26 26 27 32 35 33 31 28 28 27 28 26 26 26 24 22 21 22 25 25 22 20 23 25 24 25 26 24 24 24 32 31
23 25 26 25 25 27 29 31 31 29 26 28 30 26 28 26 24 24 22 21 21 21 22 22 22 22 21 22 21 14 12 17 24
23 24 25 27 27 25 25 26 26 27 27 27 30 30 27 29 26 26 25 21 18 19 20 22 22 21 18 17 16 15 12 9 19
23 22 23 23 26 28 26 26 28 27 25 25 26 27 29 30 28 26 24 22 20 17 16 18 20 19 17 15 16 16 12 14 12
24 22 20 21 22 25 27 25 24 29 27 24 24 10 15 21 29 28 27 24 18 16 16 16 13 14 17 16 16 16 16 14 16
20 20 22 23 23 23 25 25 24 23 28 24 26 31 14 18 21 26 25 22 19 17 16 15 12 9 12 12 12 15 16 16 18
21 20 20 20 22 21 23 22 23 24 27 28 17 27 35 29 12 11 25 21 18 16 16 15 15 13 10 12 10 11 14 16 16
Wind_Direction
306 289 284 283 318 325 290 266 269 269 256 253 249 250 247 247 248 244 233 229 230 226 219 221 235 241 233 227 224 228 230 231 219
316 278 276 274 266 280 280 305 280 262 260 262 253 250 244 240 236 241 247 239 235 234 233 231 231 238 235 228 224 228 229 225 220
306 293 287 276 279 284 305 294 303 286 273 260 254 250 246 245 239 235 234 240 244 240 241 237 231 236 235 228 228 230 220 217 212
305 297 288 284 282 282 302 298 294 293 285 288 264 258 243 244 248 240 238 237 238 237 241 245 231 232 233 232 232 231 225 216 214
298 295 294 286 277 278 276 281 286 287 284 272 260 261 259 246 245 248 245 242 237 239 238 240 236 232 230 230 231 232 227 218 215
293 294 291 290 295 282 266 272 272 244 255 265 264 261 258 260 255 245 250 252 244 239 240 236 238 235 232 226 228 227 225 216 221
287 289 290 286 281 279 274 261 258 262 255 252 253 262 262 258 256 255 252 251 250 243 241 240 242 241 236 230 224 225 219 221 218
287 279 276 279 278 273 272 265 258 256 255 262 263 265 262 260 256 254 250 247 247 247 245 248 235 236 235 232 232 230 227 222 221
286 284 282 278 278 276 267 265 256 253 257 253 259 263 266 266 259 255 251 252 249 244 246 245 248 240 232 236 240 233 232 229 225
288 287 285 279 275 274 268 261 261 252 254 254 253 253 257 265 264 261 252 254 250 245 242 246 247 249 227 233 226 223 234 232 228
288 286 285 278 277 274 268 262 257 255 250 247 245 244 254 253 262 265 261 257 254 250 247 246 250 249 241 237 239 218 244 223 227
283 282 280 278 274 269 268 265 260 258 249 248 237 233 241 253 259 261 267 263 267 258 256 253 252 249 248 256 252 243 253 224 223
298 281 276 275 275 271 268 263 256 255 251 247 245 240 237 254 263 267 264 270 273 273 262 260 262 260 257 260 275 281 260 263 258
309 305 294 281 275 273 267 264 262 261 256 252 247 244 236 237 254 262 268 267 269 275 269 263 265 271 269 267 270 281 282 275 264
309 303 302 300 291 281 275 269 261 257 256 254 253 248 238 236 243 250 255 262 265 264 265 269 267 272 276 273 272 272 297 271 254
307 300 297 298 295 295 285 276 265 257 251 253 255 251 249 240 235 240 246 253 255 267 267 270 271 266 269 265 261 249 248 282 265
314 302 296 292 292 292 286 280 268 258 249 252 257 263 253 240 228 232 238 246 260 264 259 268 272 265 252 248 246 249 240 231 228
313 304 296 288 285 283 285 281 272 257 252 247 236 226 232 244 232 230 238 243 254 245 261 266 263 254 233 235 242 245 245 235 223
312 304 295 291 285 277 276 278 274 259 250 244 239 233 241 214 216 227 223 237 238 239 253 254 244 221 213 221 230 242 247 249 242
341 329 316 303 283 276 268 274 267 261 253 242 241 231 228 234 221 211 219 214 224 236 246 240 261 256 230 209 216 236 248 256 253